Billings, MT (59101)

5:17 PM MST on February 13, 2016 (GMT -0700)
Jupiter Sulphur | | Change Station
CLOSE
Current Station
Personal Weather Station
Location: Billings, MT
Elevation: 3114 ft
Nearby Weather Stations

Elev 3114 ft 45.78 °N, 108.49 °W | Updated 1 minute ago

Partly Cloudy
Partly Cloudy
49.9 °F
Feels Like 50 °F
N
2.0
Wind Variable Wind from NW
Gusts 17.0 mph

Today
High -- | Low -- °F
--% Chance of Precip.
Yesterday
High -- | Low -- °F
Precip. -- in
Pressure 30.02 in
Visibility 10.0 miles
Clouds Few 7500 ft
Few 20000 ft
Windchill 50 °F
Dew Point 20 °F
Humidity 31%
Rainfall 0.00 in
Snow Depth Not available.
7:19 AM 5:37 PM
Waxing Crescent, 35% visible
METAR KBIL 132353Z 29025G34KT 10SM FEW075 FEW200 08/M08 A2998 RMK AO2 PK WND 29039/2321 SLP165 VIRGA SHRASN DSNT NE-SE 60000 T00831083 10100 20033 53013 $
Pressure 30.02 in
Visibility 10.0 miles
Clouds Few 7500 ft
Few 20000 ft
Windchill 50 °F
Dew Point 20 °F
Humidity 31%
Rainfall 0.00 in
Snow Depth Not available.
7:19 AM 5:37 PM
Waxing Crescent, 35% visible
METAR KBIL 132353Z 29025G34KT 10SM FEW075 FEW200 08/M08 A2998 RMK AO2 PK WND 29039/2321 SLP165 VIRGA SHRASN DSNT NE-SE 60000 T00831083 10100 20033 53013 $

10-Day Weather Forecast

Almanac

Astronomy

Feb. 13, 2016 Rise Set
Actual Time
Civil Twilight
Nautical Twilight
Astronomical Twilight
Moon
Length of Visible Light
Length of Day
Tomorrow will be .
, % of the Moon is Illuminated

Today's Extremes

State Highs State Lows

Community

WunderPhotos

Upload Photos

1,892,709 photos uploaded!

WunderBlog® & News

Nearby

Air Quality

  Air Quality AQ Index Pollutant
Not available.

Snow Depth

Station Depth Elevation

Earthquake Activity

City Distance Mag. Time & Date
Minimum magnitude displayed is 2.5.

Coastal Water Temperatures

Place Temperature

Stations

Nearby Weather Stations

Station Location Temp. Windchill Dew Point Humidity Wind Precip. Elev Updated Type
                   

Watches & Warnings

There are currently no watches in effect.